100  
ASUS43 KGLD 242308  
RWRGLD  
 
GOODLAND FORECAST AREA HOURLY WEATHER ROUNDUP  
NATIONAL WEATHER SERVICE GOODLAND KS  
400 PM MST FRI NOV 24 2017  
   
..OFFICIAL OBSERVATIONS
 
 
 
CITY SKY/WX TMP DP RH WIND PRES REMARKS
 
GOODLAND KS CLOUDY 61 34 36 N12 29.85R  
HILL CITY KS PTCLDY 64 38 38 NE12 29.80R  
IMPERIAL NEB CLOUDY 60 36 40 N13 29.86R  
MCCOOK NEB CLOUDY 61 38 42 N9 29.83R  
AKRON CO MOCLDY 51 37 58 NW3 29.94R  
BURLINGTON CO CLOUDY 61 34 36 N14G26 29.89R  
LIMON CO CLOUDY 58 32 37 N23G31 29.93R  

 
   
..UNOFFICIAL OBSERVATIONS
 
 
 
CITY SKY/WX TMP DP RH WIND PRES REMARKS
 
COLBY KS CLOUDY 61 37 41 N7 29.85R  
LENORA KS N/A 61 32 33 CALM N/A  
NORTON KS CLEAR 61 30 31 N12 29.79  
SHARON SPRINGS N/A 64 35 34 N14 N/A  
KIT CARSON CO N/A 63 33 33 MISG N/A  
YUMA CO RAIN 55 16 21 N13G21 29.91R  

 
 
 
CLICK HERE TO GO TO PREVIOUS BULLETINS.

The Nexlab KS Page
The Nexlab CO Page
The Nexlab NE Page Main Text Page